SCP
0 0 0 0 0 0 0 0 0 -0 0 0 0 0 0 0 0 0 0 0 0 0 0 -0 -0 -0 -0 0 -0 -0 -0 -0
0 0 0 0 0 0 0 0 0 0 0 0 0 0 0 0 0 0 0 0 0 0 0 0 0 0 0 0 0 0 0 0
0 0 0 0 0 0 0 0 0 0 -0 0 0 0 0 0 0 0 0 1 0 1 1 0 0 0 0 0 0 0 0 0
0 0 0 0 0 0 0 0 0 0 0 0 0 0 0 0 0 0 1 1 0 1 1 1 1 0 0 0 0 0 0 0
0 0 0 0 0 0 0 0 0 0 0 0 0 0 0 0 0 0 0 1 0 0 1 1 1 1 0 0 0 0 0 0
0 0 0 0 0 0 0 0 0 0 0 0 0 0 0 0 0 0 0 1 0 0 0 0 0 1 1 0 1 0 0 0
0 0 0 0 0 0 0 0 0 0 0 0 0 0 0 -0 0 0 0 1 0 0 0 0 0 0 1 1 1 1 1 1
0 -0 0 0 0 0 0 0 0 0 0 0 0 -0 0 0 0 0 0 1 1 0 0 0 0 1 1 1 1 1 1 1
-0 -0 0 0 0 0 0 0 0 0 0 0 0 0 0 -0 0 0 0 0 2 1 1 0 -0 1 0 0 1 1 1 1
0 0 0 0 0 0 0 0 0 0 0 0 0 0 0 0 0 0 0 0 1 3 3 0 -0 1 1 0 0 0 0 1
0 0 0 0 0 0 0 0 0 0 0 0 0 0 0 0 0 0 0 1 2 3 1 3 -1 2 2 0 0 0 1 1
0 0 0 0 0 0 0 0 0 0 0 0 0 0 0 0 0 0 0 2 3 0 2 2 1 2 3 2 1 1 1 1
0 0 0 0 0 0 0 0 0 0 0 0 -0 0 0 0 0 0 0 0 1 0 0 1 2 0 4 4 1 1 1 2
0 0 0 0 0 0 0 0 0 0 0 0 0 0 0 0 0 0 0 1 1 0 0 2 4 4 3 4 3 2 2 3
-0 -0 0 0 0 0 -0 0 0 0 0 0 0 0 0 0 0 0 0 1 1 3 4 5 6 4 3 3 4 4 3 3
-0 -0 0 0 0 0 -0 0 0 0 0 0 0 0 0 0 0 0 0 0 1 1 4 13 8 6 4 4 4 3 3 4
0 0 0 0 0 0 0 0 0 0 0 0 0 0 0 0 0 0 0 0 0 1 2 4 9 7 6 5 5 4 4 4
0 0 0 0 0 0 0 0 0 0 0 0 0 0 0 0 0 0 0 0 0 0 1 2 2 6 5 5 3 5 4 4
0 0 0 0 0 0 0 0 0 0 0 0 0 0 0 0 0 0 0 0 0 0 0 1 1 1 3 4 3 3 4 7
0 0 0 0 0 0 0 0 0 0 0 0 0 0 0 0 0 0 0 0 0 1 1 0 1 1 2 3 4 3 4 6
Wind_Speed_500mb
12 24 28 31 23 13 17 13 7 9 4 15 23 23 24 38 35 28 33 42 42 43 42 39 37 33 30 30 29 28 24 21
19 33 39 42 15 18 9 10 5 15 2 13 19 17 30 32 35 29 32 36 43 42 41 38 35 33 32 31 32 29 26 22
31 35 41 23 5 17 16 7 1 6 18 29 19 15 24 26 29 30 29 32 41 40 41 39 35 32 32 33 34 34 28 22
27 36 38 21 15 2 17 33 3 4 14 30 20 21 22 23 23 27 30 29 22 38 38 37 35 33 33 35 37 37 32 26
36 35 41 43 15 22 21 27 8 17 1 19 24 22 21 20 22 29 24 25 22 39 41 39 35 33 32 36 41 41 37 31
37 35 45 41 42 27 19 31 16 9 7 16 16 12 14 20 23 27 28 24 17 41 42 42 40 38 34 36 41 42 40 36
40 37 34 44 20 35 21 27 18 4 21 12 9 5 19 25 27 30 27 30 19 36 44 44 42 41 39 38 42 44 44 42
28 39 32 39 32 31 6 39 22 31 30 31 12 16 25 31 32 33 35 34 31 26 32 43 39 45 43 43 47 51 51 49
39 42 15 21 25 15 18 22 23 34 35 41 33 32 24 35 37 40 42 45 46 34 38 31 38 38 40 47 49 52 54 54
52 26 6 25 26 26 28 39 42 37 41 27 20 14 25 32 37 41 44 38 46 34 38 29 34 43 35 48 46 51 56 55
43 45 22 25 31 35 40 39 35 36 35 29 29 31 27 33 24 11 8 31 35 37 18 34 44 44 38 31 40 43 50 59
46 36 32 32 37 38 42 38 38 33 38 34 33 40 40 33 30 30 19 8 46 54 49 48 52 45 46 42 49 44 45 51
34 49 33 40 39 38 42 42 39 41 45 40 42 41 47 41 30 27 20 12 19 36 54 38 67 65 45 48 48 52 48 49
37 41 48 41 38 37 52 57 47 34 35 37 38 36 33 37 35 34 24 17 17 27 37 46 59 49 60 42 52 51 52 54
43 42 45 42 40 30 50 16 35 35 34 44 47 36 37 37 30 21 26 28 33 24 38 46 43 42 39 57 52 52 49 60
34 27 26 28 27 30 36 28 31 33 38 36 34 40 41 39 41 37 22 22 19 38 26 29 32 40 39 45 51 58 57 62
28 25 30 35 28 27 29 37 37 45 47 45 41 43 31 34 35 30 32 25 25 26 36 38 40 41 44 51 50 49 58 58
35 38 32 32 33 30 35 41 47 43 39 40 44 44 42 38 33 38 30 33 30 27 29 28 46 45 47 46 51 55 57 61
38 37 38 34 32 31 40 46 51 52 45 43 41 38 43 42 35 35 27 21 23 29 34 33 31 47 50 58 64 50 61 71
38 34 28 34 31 35 39 40 44 56 57 51 43 39 37 44 16 9 9 15 18 28 29 34 32 39 45 48 50 66 72 50
Wind_Direction_500mb
245 243 245 260 44 25 340 287 271 256 33 352 56 95 103 133 144 163 155 158 157 159 160 163 165 172 177 173 172 168 160 157
262 260 250 257 322 249 282 213 356 333 37 102 68 52 122 134 147 142 152 161 162 163 163 165 167 169 177 182 181 180 175 171
250 245 263 281 166 38 292 304 281 111 272 99 87 98 114 136 150 149 152 177 168 169 169 169 171 175 179 185 188 186 187 186
249 247 255 268 286 161 266 299 198 250 272 106 130 131 135 145 151 153 164 190 180 177 177 176 177 180 184 187 189 190 192 196
245 257 275 287 196 253 245 271 272 35 164 122 115 110 138 152 156 153 168 216 184 184 183 183 184 186 187 190 189 193 198 204
246 253 252 251 275 238 228 263 77 72 257 82 83 137 160 170 165 163 167 205 215 187 188 189 189 191 190 191 193 198 205 210
250 257 265 260 262 246 221 259 280 240 233 139 114 227 201 200 179 179 175 199 223 189 194 194 197 197 194 194 199 205 211 216
246 248 264 259 264 276 225 250 241 265 262 271 264 234 225 208 203 197 181 192 209 205 205 195 199 202 201 201 203 207 213 218
244 256 262 305 277 267 292 262 255 261 246 242 246 232 230 232 221 208 212 200 201 216 213 194 185 221 209 210 210 212 215 219
271 277 238 265 254 267 242 255 257 256 269 285 298 268 234 244 237 221 225 216 174 192 204 205 186 225 236 216 216 219 216 218
247 263 254 254 254 253 247 243 245 252 266 256 268 269 246 273 255 281 358 208 222 207 201 233 204 216 230 222 222 225 220 220
266 250 253 248 250 248 249 249 248 236 239 233 249 249 252 267 275 280 291 252 223 200 238 229 224 201 224 229 214 228 225 225
246 255 236 244 247 247 253 256 229 241 236 237 244 235 227 234 249 274 285 253 234 218 209 207 238 212 202 219 214 227 224 234
248 236 234 237 253 251 244 230 225 236 233 249 241 245 238 241 240 252 259 253 213 221 201 217 234 246 216 214 218 216 227 225
246 249 225 215 243 254 249 295 201 227 239 246 246 231 244 249 246 249 264 268 264 233 226 229 248 255 234 222 221 224 218 225
261 242 194 233 246 243 269 204 233 235 252 252 243 241 231 226 245 250 246 264 262 243 226 221 237 252 241 233 228 223 227 229
290 236 198 213 229 251 263 262 219 219 221 230 233 248 237 237 235 237 233 267 282 283 243 223 226 240 241 230 234 235 227 235
282 291 289 280 267 256 256 259 261 258 244 245 237 229 240 238 231 229 233 254 252 274 275 268 236 230 237 243 243 235 238 230
273 280 281 274 262 268 262 256 259 261 257 243 255 248 235 230 232 222 215 212 247 285 287 277 268 241 239 243 241 241 237 231
261 266 266 266 271 256 252 242 229 232 232 237 236 254 255 245 197 157 237 277 284 275 275 281 277 265 257 246 249 245 239 243
Wind_Speed_850mb
12 24 28 31 23 13 17 13 7 9 4 15 23 23 24 38 35 28 33 42 42 43 42 39 37 33 30 30 29 28 24 21
19 33 39 42 15 18 9 10 5 15 2 13 19 17 30 32 35 29 32 36 43 42 41 38 35 33 32 31 32 29 26 22
31 35 41 23 5 17 16 7 1 6 18 29 19 15 24 26 29 30 29 32 41 40 41 39 35 32 32 33 34 34 28 22
27 36 38 21 15 2 17 33 3 4 14 30 20 21 22 23 23 27 30 29 22 38 38 37 35 33 33 35 37 37 32 26
36 35 41 43 15 22 21 27 8 17 1 19 24 22 21 20 22 29 24 25 22 39 41 39 35 33 32 36 41 41 37 31
37 35 45 41 42 27 19 31 16 9 7 16 16 12 14 20 23 27 28 24 17 41 42 42 40 38 34 36 41 42 40 36
40 37 34 44 20 35 21 27 18 4 21 12 9 5 19 25 27 30 27 30 19 36 44 44 42 41 39 38 42 44 44 42
28 39 32 39 32 31 6 39 22 31 30 31 12 16 25 31 32 33 35 34 31 26 32 43 39 45 43 43 47 51 51 49
39 42 15 21 25 15 18 22 23 34 35 41 33 32 24 35 37 40 42 45 46 34 38 31 38 38 40 47 49 52 54 54
52 26 6 25 26 26 28 39 42 37 41 27 20 14 25 32 37 41 44 38 46 34 38 29 34 43 35 48 46 51 56 55
43 45 22 25 31 35 40 39 35 36 35 29 29 31 27 33 24 11 8 31 35 37 18 34 44 44 38 31 40 43 50 59
46 36 32 32 37 38 42 38 38 33 38 34 33 40 40 33 30 30 19 8 46 54 49 48 52 45 46 42 49 44 45 51
34 49 33 40 39 38 42 42 39 41 45 40 42 41 47 41 30 27 20 12 19 36 54 38 67 65 45 48 48 52 48 49
37 41 48 41 38 37 52 57 47 34 35 37 38 36 33 37 35 34 24 17 17 27 37 46 59 49 60 42 52 51 52 54
43 42 45 42 40 30 50 16 35 35 34 44 47 36 37 37 30 21 26 28 33 24 38 46 43 42 39 57 52 52 49 60
34 27 26 28 27 30 36 28 31 33 38 36 34 40 41 39 41 37 22 22 19 38 26 29 32 40 39 45 51 58 57 62
28 25 30 35 28 27 29 37 37 45 47 45 41 43 31 34 35 30 32 25 25 26 36 38 40 41 44 51 50 49 58 58
35 38 32 32 33 30 35 41 47 43 39 40 44 44 42 38 33 38 30 33 30 27 29 28 46 45 47 46 51 55 57 61
38 37 38 34 32 31 40 46 51 52 45 43 41 38 43 42 35 35 27 21 23 29 34 33 31 47 50 58 64 50 61 71
38 34 28 34 31 35 39 40 44 56 57 51 43 39 37 44 16 9 9 15 18 28 29 34 32 39 45 48 50 66 72 50
Wind_Direction_850mb
245 243 245 260 44 25 340 287 271 256 33 352 56 95 103 133 144 163 155 158 157 159 160 163 165 172 177 173 172 168 160 157
262 260 250 257 322 249 282 213 356 333 37 102 68 52 122 134 147 142 152 161 162 163 163 165 167 169 177 182 181 180 175 171
250 245 263 281 166 38 292 304 281 111 272 99 87 98 114 136 150 149 152 177 168 169 169 169 171 175 179 185 188 186 187 186
249 247 255 268 286 161 266 299 198 250 272 106 130 131 135 145 151 153 164 190 180 177 177 176 177 180 184 187 189 190 192 196
245 257 275 287 196 253 245 271 272 35 164 122 115 110 138 152 156 153 168 216 184 184 183 183 184 186 187 190 189 193 198 204
246 253 252 251 275 238 228 263 77 72 257 82 83 137 160 170 165 163 167 205 215 187 188 189 189 191 190 191 193 198 205 210
250 257 265 260 262 246 221 259 280 240 233 139 114 227 201 200 179 179 175 199 223 189 194 194 197 197 194 194 199 205 211 216
246 248 264 259 264 276 225 250 241 265 262 271 264 234 225 208 203 197 181 192 209 205 205 195 199 202 201 201 203 207 213 218
244 256 262 305 277 267 292 262 255 261 246 242 246 232 230 232 221 208 212 200 201 216 213 194 185 221 209 210 210 212 215 219
271 277 238 265 254 267 242 255 257 256 269 285 298 268 234 244 237 221 225 216 174 192 204 205 186 225 236 216 216 219 216 218
247 263 254 254 254 253 247 243 245 252 266 256 268 269 246 273 255 281 358 208 222 207 201 233 204 216 230 222 222 225 220 220
266 250 253 248 250 248 249 249 248 236 239 233 249 249 252 267 275 280 291 252 223 200 238 229 224 201 224 229 214 228 225 225
246 255 236 244 247 247 253 256 229 241 236 237 244 235 227 234 249 274 285 253 234 218 209 207 238 212 202 219 214 227 224 234
248 236 234 237 253 251 244 230 225 236 233 249 241 245 238 241 240 252 259 253 213 221 201 217 234 246 216 214 218 216 227 225
246 249 225 215 243 254 249 295 201 227 239 246 246 231 244 249 246 249 264 268 264 233 226 229 248 255 234 222 221 224 218 225
261 242 194 233 246 243 269 204 233 235 252 252 243 241 231 226 245 250 246 264 262 243 226 221 237 252 241 233 228 223 227 229
290 236 198 213 229 251 263 262 219 219 221 230 233 248 237 237 235 237 233 267 282 283 243 223 226 240 241 230 234 235 227 235
282 291 289 280 267 256 256 259 261 258 244 245 237 229 240 238 231 229 233 254 252 274 275 268 236 230 237 243 243 235 238 230
273 280 281 274 262 268 262 256 259 261 257 243 255 248 235 230 232 222 215 212 247 285 287 277 268 241 239 243 241 241 237 231
261 266 266 266 271 256 252 242 229 232 232 237 236 254 255 245 197 157 237 277 284 275 275 281 277 265 257 246 249 245 239 243